Weather History for OTBD - November, 2012

Change the Weather History Date:

Thursday, November 22, 2012

  Actual Average Record
Temperature  
Mean Temperature 75 °F -  
Max Temperature 82 °F 78 °F 91 °F (2005)
Min Temperature 68 °F 61 °F 64 °F (2001)
Cooling Degree Days 10    
Growing Degree Days 25 (Base 50)    
Moisture  
Dew Point 58 °F    
Average Humidity 56    
Maximum Humidity 73    
Minimum Humidity 27    
Precipitation  
Precipitation 0.00 in 0.01 in - ()
Sea Level Pressure  
Sea Level Pressure 30.02 in    
Wind  
Wind Speed 7 mph ()    
Max Wind Speed 13 mph    
Max Gust Speed -    
Visibility 5.3 miles    
Events      
Averages and records for this station are not official NWS values.
T = Trace of Precipitation, MM = Missing Value Source: Averaged Metar Reports

Daily Weather History Graph

Daily Weather History Graph

Search for Another Location

Airport or City:

Trip Planner

Search our weather history database for the weather conditions in past years. The results will help you decide how hot, cold, wet, or windy it might be!

Date:

Astronomy

Nov. 22, 2012 Rise Set
Actual Time 5:55 AM AST 4:43 PM AST
Civil Twilight 5:31 AM AST 5:08 PM AST
Nautical Twilight 5:03 AM AST 5:36 PM AST
Astronomical Twilight 4:35 AM AST 6:03 PM AST
Moon 12:48 PM AST (11/22) 12:25 AM AST (11/22)
Length of Visible Light 11h 36m
Length of Day
10h 47m
Waxing Gibbous, 68% of the Moon is Illuminated
Nov 22
Waxing Gibbous
Nov 28
Full
Dec 6
Last Quarter
Dec 13
New
Dec 20
First Quarter

Hourly Weather History & Observations

Time (AST) Temp. Heat Index Dew Point Humidity Pressure Visibility Wind Dir Wind Speed Gust Speed Precip Events Conditions
12:00 AM 69.8 °F - 57.2 °F 64% 30.01 in - West 3.5 mph - N/A   Clear
1:00 AM 69.8 °F - 57.2 °F 64% 30.01 in 5.0 mi WSW 4.6 mph - N/A   Unknown
2:00 AM 68.0 °F - 59.0 °F 73% 30.01 in 4.3 mi WSW 3.5 mph - N/A   Unknown
3:00 AM 69 °F - 58 °F 59% 30.01 in 4 mi WSW 3.5 mph - -   Haze
3:00 AM 69.8 °F - 57.2 °F 64% 30.01 in 4.3 mi WSW 3.5 mph - N/A   Unknown
4:00 AM 69.8 °F - 59.0 °F 68% 29.98 in 4.3 mi West 5.8 mph - N/A   Unknown
5:00 AM 69.8 °F - 59.0 °F 68% 30.01 in 4.3 mi WNW 8.1 mph - N/A   Unknown
6:00 AM 69.8 °F - 60.8 °F 73% 30.01 in 3.7 mi WNW 11.5 mph - N/A   Partly Cloudy
6:30 AM 69.8 °F - 60.8 °F 73% 30.04 in 3.7 mi WNW 9.2 mph - N/A   Partly Cloudy
7:00 AM 71.6 °F - 60.8 °F 69% 30.04 in 5.0 mi WNW 9.2 mph - N/A   Unknown
7:30 AM 71.6 °F - 59.0 °F 64% 30.04 in 5.0 mi WNW 9.2 mph - N/A   Unknown
8:00 AM 73.4 °F - 59.0 °F 61% 30.06 in - WNW 9.2 mph - N/A   Clear
8:30 AM 73.4 °F - 60.8 °F 65% 30.06 in - NW 11.5 mph - N/A   Clear
9:00 AM 75 °F - 60 °F 51% 30.08 in 6 mi WNW 11.5 mph - -   Clear
9:00 AM 75.2 °F - 60.8 °F 61% 30.06 in - WNW 11.5 mph - N/A   Clear
9:30 AM 77.0 °F - 60.8 °F 57% 30.06 in - NW 11.5 mph - N/A   Clear
10:00 AM 77.0 °F - 60.8 °F 57% 30.06 in - NW 12.7 mph - N/A   Clear
10:30 AM 78.8 °F - 59.0 °F 51% 30.04 in - NW 11.5 mph - N/A   Clear
11:00 AM 78.8 °F - 57.2 °F 47% 30.04 in 6.2 mi NW 12.7 mph - N/A   Partly Cloudy
11:30 AM 78.8 °F - 55.4 °F 44% 30.04 in 6.2 mi WNW 10.4 mph - N/A   Partly Cloudy
12:00 PM 80.6 °F 80.5 °F 55.4 °F 42% 30.01 in 6.2 mi NW 10.4 mph - N/A   Partly Cloudy
12:30 PM 80.6 °F 80.5 °F 55.4 °F 42% 30.01 in 6.2 mi NW 9.2 mph - N/A   Partly Cloudy
1:00 PM 80.6 °F 81.1 °F 59.0 °F 48% 29.98 in 6.2 mi WNW 8.1 mph - N/A   Partly Cloudy
1:30 PM 82.4 °F 81.4 °F 53.6 °F 37% 29.98 in - NW 6.9 mph - N/A   Clear
2:00 PM 80.6 °F 80.3 °F 53.6 °F 39% 29.98 in - NW 6.9 mph - N/A   Clear
2:30 PM 80.6 °F 80.3 °F 53.6 °F 39% 29.98 in - NW 8.1 mph - N/A   Clear
3:00 PM 81 °F - 53 °F 27% 29.99 in 7 mi NW 6.9 mph - -   Scattered Clouds
3:00 PM 80.6 °F 80.3 °F 53.6 °F 39% 29.98 in - NW 6.9 mph - N/A   Clear
3:30 PM 80.6 °F 80.3 °F 53.6 °F 39% 29.98 in - NW 6.9 mph - N/A   Clear
4:00 PM 78.8 °F - 53.6 °F 42% 29.98 in - NW 6.9 mph - N/A   Clear
4:30 PM 78.8 °F - 53.6 °F 42% 29.98 in - NW 10.4 mph - N/A   Clear
5:00 PM 77.0 °F - 55.4 °F 47% 30.01 in - NW 8.1 mph - N/A   Clear
5:30 PM 77.0 °F - 55.4 °F 47% 30.01 in - NW 8.1 mph - N/A   Clear
6:00 PM 77.0 °F - 55.4 °F 47% 30.01 in - NNW 8.1 mph - N/A   Clear
6:30 PM 77.0 °F - 55.4 °F 47% 30.01 in - NW 9.2 mph - N/A   Clear
7:00 PM 75.2 °F - 57.2 °F 53% 30.01 in - NNW 8.1 mph - N/A   Clear
7:30 PM 75.2 °F - 60.8 °F 61% 30.01 in - NNW 8.1 mph - N/A   Clear
8:00 PM 75.2 °F - 62.6 °F 65% 30.04 in - NNW 8.1 mph - N/A   Clear
8:30 PM 75.2 °F - 62.6 °F 65% 30.04 in - NW 6.9 mph - N/A   Clear
9:00 PM 74 °F - 63 °F 61% 30.04 in 7 mi NW 6.9 mph - -   Clear
9:00 PM 73.4 °F - 62.6 °F 69% 30.04 in - NW 6.9 mph - N/A   Clear
9:30 PM 73.4 °F - 62.6 °F 69% 30.01 in - NW 6.9 mph - N/A   Clear
10:00 PM 73.4 °F - 62.6 °F 69% 30.01 in - NW 5.8 mph - N/A   Clear
10:30 PM 73.4 °F - 60.8 °F 65% 30.01 in - WNW 6.9 mph - N/A   Clear
11:00 PM 73.4 °F - 60.8 °F 65% 30.01 in - NW 6.9 mph - N/A   Clear
11:30 PM 73.4 °F - 60.8 °F 65% 30.01 in - NW 5.8 mph - N/A   Clear